KAL601 RKSI-RPVM

Flight info

Callsign KAL601
Flight time N/A
Altitude 38000
Route BOPTA Z51 BEDES Y711 KIDOS Z81 CJU Y572 RUGMA Y579 RUSAR Y27 SAKON DCT GURAG G578 TAC DCT LARYO
Aircraft B77W/H-SDE1E2E3FGHIJ2J3J4J5M1RWXY/LB1D1

Departure

Time 2026-05-05 02:17
Airport Incheon International Airport (RKSI)

Arrival

Time N/A
Airport Mactan Cebu International Airport (RPVM)
Time Latitude Longitude Altitude Speed Heading
2026-05-05 01:48 37.46569 126.43416 35 ft 0 kts 319°
2026-05-05 02:03 37.46567 126.43418 35 ft 2 kts 319°
2026-05-05 02:04 37.46556 126.43430 35 ft 2 kts 318°
2026-05-05 02:04 37.46545 126.43443 35 ft 2 kts 318°
2026-05-05 02:04 37.46534 126.43455 35 ft 2 kts 319°
2026-05-05 02:04 37.46526 126.43463 35 ft 2 kts 316°
2026-05-05 02:05 37.46518 126.43478 35 ft 2 kts 291°
2026-05-05 02:05 37.46514 126.43496 35 ft 2 kts 271°
2026-05-05 02:05 37.46516 126.43515 35 ft 2 kts 251°
2026-05-05 02:05 37.46521 126.43529 35 ft 0 kts 234°
2026-05-05 02:06 37.46522 126.43531 35 ft 0 kts 233°
2026-05-05 02:09 37.46521 126.43529 35 ft 1 kts 233°
2026-05-05 02:09 37.46504 126.43497 35 ft 6 kts 232°
2026-05-05 02:09 37.46457 126.43471 35 ft 8 kts 175°
2026-05-05 02:09 37.46394 126.43508 35 ft 10 kts 145°
2026-05-05 02:10 37.46322 126.43572 35 ft 14 kts 144°
2026-05-05 02:10 37.46248 126.43637 35 ft 10 kts 150°
2026-05-05 02:10 37.46180 126.43637 35 ft 9 kts 211°
2026-05-05 02:10 37.46135 126.43568 35 ft 9 kts 235°
2026-05-05 02:11 37.46092 126.43493 35 ft 11 kts 234°
2026-05-05 02:11 37.46042 126.43404 35 ft 12 kts 234°
2026-05-05 02:11 37.45991 126.43314 35 ft 12 kts 234°
2026-05-05 02:11 37.45945 126.43225 35 ft 11 kts 249°
2026-05-05 02:12 37.45969 126.43137 35 ft 12 kts 319°
2026-05-05 02:12 37.46122 126.42999 35 ft 17 kts 324°
2026-05-05 02:12 37.46229 126.42902 35 ft 20 kts 324°
2026-05-05 02:13 37.46357 126.42789 35 ft 23 kts 324°
2026-05-05 02:13 37.46496 126.42665 35 ft 25 kts 324°
2026-05-05 02:13 37.46647 126.42531 35 ft 27 kts 326°
2026-05-05 02:13 37.46802 126.42395 35 ft 27 kts 324°
2026-05-05 02:14 37.46956 126.42256 35 ft 26 kts 324°
2026-05-05 02:14 37.47106 126.42123 35 ft 24 kts 324°
2026-05-05 02:14 37.47226 126.42017 35 ft 16 kts 324°
2026-05-05 02:14 37.47311 126.41941 35 ft 13 kts 324°
2026-05-05 02:15 37.47361 126.41896 35 ft 6 kts 324°
2026-05-05 02:15 37.47398 126.41846 35 ft 9 kts 289°
2026-05-05 02:15 37.47384 126.41769 35 ft 9 kts 237°
2026-05-05 02:15 37.47346 126.41699 35 ft 9 kts 235°
2026-05-05 02:16 37.47308 126.41629 35 ft 9 kts 235°
2026-05-05 02:16 37.47272 126.41573 35 ft 7 kts 206°
2026-05-05 02:16 37.47226 126.41596 35 ft 4 kts 144°
2026-05-05 02:16 37.47224 126.41597 35 ft 2 kts 144°
2026-05-05 02:17 37.47128 126.41683 35 ft 45 kts 145°
2026-05-05 02:17 37.46659 126.42103 35 ft 116 kts 144°
2026-05-05 02:17 37.45850 126.42817 160 ft 161 kts 144°
2026-05-05 02:17 37.44923 126.43634 744 ft 169 kts 148°
2026-05-05 02:18 37.43892 126.44445 1417 ft 178 kts 151°
2026-05-05 02:18 37.42806 126.45236 1955 ft 186 kts 152°
2026-05-05 02:18 37.41682 126.46078 2631 ft 187 kts 152°
2026-05-05 02:18 37.40571 126.46922 3281 ft 190 kts 151°
2026-05-05 02:19 37.39408 126.47807 3744 ft 202 kts 152°
2026-05-05 02:19 37.38134 126.48666 4163 ft 216 kts 161°
2026-05-05 02:19 37.36622 126.49214 4523 ft 235 kts 168°
2026-05-05 02:19 37.34951 126.49705 4996 ft 252 kts 168°
2026-05-05 02:20 37.33232 126.50264 5650 ft 260 kts 166°
2026-05-05 02:20 37.31491 126.50856 6377 ft 265 kts 166°
2026-05-05 02:20 37.29682 126.51469 7034 ft 273 kts 166°
2026-05-05 02:20 37.27844 126.52128 7812 ft 276 kts 160°
2026-05-05 02:21 37.26131 126.53178 8568 ft 279 kts 152°
2026-05-05 02:21 37.24440 126.54385 9346 ft 281 kts 151°
2026-05-05 02:21 37.22737 126.55589 9959 ft 287 kts 152°
2026-05-05 02:21 37.20908 126.56827 10333 ft 305 kts 152°
2026-05-05 02:22 37.19002 126.58106 10713 ft 321 kts 152°
2026-05-05 02:22 37.16957 126.59483 11146 ft 337 kts 152°
2026-05-05 02:22 37.14750 126.60762 11559 ft 353 kts 162°
2026-05-05 02:22 37.12262 126.61244 11983 ft 369 kts 176°
2026-05-05 02:23 37.09629 126.61307 12481 ft 383 kts 178°
2026-05-05 02:23 37.06934 126.61332 13306 ft 390 kts 178°
2026-05-05 02:23 37.04211 126.61356 14227 ft 395 kts 178°
2026-05-05 02:23 37.01481 126.61380 15158 ft 401 kts 178°
2026-05-05 02:24 36.98653 126.61405 16176 ft 407 kts 178°
2026-05-05 02:24 36.95849 126.61430 17134 ft 412 kts 178°
2026-05-05 02:24 36.92980 126.61455 18108 ft 417 kts 178°
2026-05-05 02:24 36.90035 126.61481 18997 ft 423 kts 178°
2026-05-05 02:25 36.87089 126.61506 19867 ft 430 kts 179°
2026-05-05 02:25 36.84064 126.61533 20700 ft 437 kts 179°
2026-05-05 02:25 36.81020 126.61558 21481 ft 444 kts 179°
2026-05-05 02:25 36.77898 126.61585 22289 ft 450 kts 179°
2026-05-05 02:26 36.74786 126.61668 23069 ft 456 kts 175°
2026-05-05 02:26 36.71603 126.62281 23825 ft 463 kts 167°
2026-05-05 02:26 36.68481 126.63287 24568 ft 469 kts 165°
2026-05-05 02:26 36.65326 126.64351 25330 ft 473 kts 165°
2026-05-05 02:27 36.62141 126.65426 26077 ft 478 kts 166°
2026-05-05 02:27 36.58899 126.66518 26807 ft 483 kts 166°
2026-05-05 02:27 36.55617 126.67622 27501 ft 488 kts 166°
2026-05-05 02:27 36.52334 126.68723 28171 ft 494 kts 166°
2026-05-05 02:28 36.48989 126.69844 28868 ft 498 kts 166°
2026-05-05 02:28 36.45629 126.70968 29577 ft 501 kts 167°
2026-05-05 02:28 36.42280 126.72088 30436 ft 501 kts 167°
2026-05-05 02:28 36.38929 126.73207 31346 ft 497 kts 167°
2026-05-05 02:29 36.35648 126.74310 32257 ft 491 kts 167°
2026-05-05 02:29 36.32390 126.75412 33082 ft 486 kts 168°
2026-05-05 02:29 36.29121 126.76516 33739 ft 484 kts 168°
2026-05-05 02:29 36.25862 126.77615 34303 ft 484 kts 168°
2026-05-05 02:30 36.22631 126.78703 34796 ft 483 kts 168°
2026-05-05 02:30 36.19404 126.79789 35273 ft 483 kts 169°
2026-05-05 02:30 36.16122 126.80640 35674 ft 478 kts 177°
2026-05-05 02:30 36.12816 126.80883 36091 ft 472 kts 186°
2026-05-05 02:31 36.09591 126.80634 36568 ft 469 kts 189°
2026-05-05 02:31 36.06311 126.80280 37048 ft 468 kts 190°
2026-05-05 02:31 36.03617 126.79984 37390 ft 468 kts 190°
2026-05-05 02:31 36.00361 126.79628 37633 ft 468 kts 190°
2026-05-05 02:32 35.97118 126.79275 37852 ft 466 kts 190°
2026-05-05 02:32 35.93909 126.78926 38060 ft 466 kts 190°
2026-05-05 02:32 35.90685 126.78575 38124 ft 467 kts 190°
2026-05-05 02:33 35.84202 126.77872 38127 ft 464 kts 191°
2026-05-05 02:33 35.77758 126.77174 38123 ft 464 kts 191°
2026-05-05 02:34 35.71247 126.77065 38133 ft 472 kts 183°
2026-05-05 02:34 35.64700 126.77474 38121 ft 471 kts 183°
2026-05-05 02:35 35.58128 126.77885 38115 ft 471 kts 183°
2026-05-05 02:35 35.51601 126.78294 38119 ft 471 kts 183°
2026-05-05 02:36 35.45067 126.78702 38120 ft 471 kts 183°
2026-05-05 02:36 35.38512 126.79112 38120 ft 471 kts 183°
2026-05-05 02:37 35.31992 126.79518 38123 ft 470 kts 184°
2026-05-05 02:37 35.25433 126.79925 38122 ft 471 kts 183°
2026-05-05 02:38 35.18874 126.80332 38125 ft 472 kts 183°
2026-05-05 02:38 35.12252 126.80739 38124 ft 483 kts 184°
2026-05-05 02:39 35.05438 126.81156 38119 ft 491 kts 183°
2026-05-05 02:39 34.98588 126.81580 38117 ft 491 kts 184°
2026-05-05 02:40 34.91747 126.82002 38120 ft 490 kts 184°
2026-05-05 02:40 34.84934 126.82421 38124 ft 491 kts 184°
2026-05-05 02:41 34.78103 126.82842 38123 ft 491 kts 184°
2026-05-05 02:41 34.71321 126.83259 38135 ft 490 kts 184°
2026-05-05 02:42 34.64484 126.83678 38128 ft 489 kts 184°
2026-05-05 02:42 34.57711 126.84093 38133 ft 489 kts 184°
2026-05-05 02:43 34.50917 126.84508 38132 ft 487 kts 184°
2026-05-05 02:43 34.44080 126.84925 38129 ft 487 kts 184°
2026-05-05 02:44 34.37268 126.85340 38140 ft 487 kts 184°
2026-05-05 02:44 34.30482 126.85752 38137 ft 487 kts 185°
2026-05-05 02:45 34.23702 126.86140 38144 ft 488 kts 185°
2026-05-05 02:45 34.16839 126.86530 38145 ft 486 kts 185°
2026-05-05 02:46 34.10126 126.86938 38139 ft 486 kts 185°
2026-05-05 02:46 34.03382 126.87348 38143 ft 485 kts 185°
2026-05-05 02:47 33.96670 126.87755 38151 ft 484 kts 185°
2026-05-05 02:47 33.89949 126.88163 38148 ft 481 kts 185°
2026-05-05 02:48 33.83058 126.88577 38156 ft 485 kts 185°
2026-05-05 02:48 33.76316 126.88984 38154 ft 486 kts 185°
2026-05-05 02:49 33.69508 126.89394 38154 ft 485 kts 185°
2026-05-05 02:49 33.62728 126.89803 38152 ft 482 kts 185°
2026-05-05 02:50 33.55940 126.90211 38157 ft 481 kts 185°
2026-05-05 02:50 33.49256 126.90611 38153 ft 481 kts 185°
2026-05-05 02:51 33.42532 126.91013 38156 ft 481 kts 185°
2026-05-05 02:51 33.35785 126.91417 38154 ft 481 kts 186°
2026-05-05 02:52 33.28990 126.91821 38153 ft 482 kts 186°
2026-05-05 02:52 33.22295 126.92221 38151 ft 480 kts 186°
2026-05-05 02:53 33.15478 126.92625 38154 ft 482 kts 186°
2026-05-05 02:53 33.08717 126.93029 38149 ft 477 kts 186°
2026-05-05 02:54 33.01937 126.93430 38150 ft 479 kts 186°
2026-05-05 02:54 32.95118 126.93833 38152 ft 478 kts 186°
2026-05-05 02:55 32.88340 126.94234 38158 ft 480 kts 186°
2026-05-05 02:55 32.81530 126.94636 38159 ft 478 kts 186°
2026-05-05 02:56 32.74713 126.95036 38158 ft 478 kts 186°
2026-05-05 02:56 32.67963 126.95434 38158 ft 477 kts 187°
2026-05-05 02:57 32.61356 126.95822 38157 ft 476 kts 187°
2026-05-05 02:57 32.54755 126.96209 38157 ft 475 kts 187°
2026-05-05 02:58 32.48122 126.97203 38154 ft 492 kts 175°
2026-05-05 02:58 32.41440 126.99423 38156 ft 497 kts 174°
2026-05-05 02:59 32.34790 127.01673 38160 ft 495 kts 174°
2026-05-05 02:59 32.28190 127.03893 38157 ft 497 kts 174°
2026-05-05 03:00 32.21512 127.06144 38155 ft 496 kts 174°
2026-05-05 03:00 32.14872 127.08380 38159 ft 496 kts 174°
2026-05-05 03:01 32.08260 127.10601 38149 ft 496 kts 175°
2026-05-05 03:01 32.01620 127.12829 38171 ft 494 kts 175°
2026-05-05 03:02 31.94974 127.15050 38158 ft 496 kts 175°
2026-05-05 03:02 31.88364 127.17258 38162 ft 495 kts 175°
2026-05-05 03:03 31.81706 127.19477 38174 ft 493 kts 175°
2026-05-05 03:03 31.75051 127.21692 38177 ft 493 kts 175°
2026-05-05 03:04 31.68463 127.23883 38186 ft 491 kts 175°
2026-05-05 03:04 31.61879 127.26066 38187 ft 494 kts 175°
2026-05-05 03:05 31.55265 127.28258 38183 ft 493 kts 175°
2026-05-05 03:05 31.48660 127.30445 38186 ft 491 kts 175°
2026-05-05 03:06 31.42084 127.32616 38184 ft 492 kts 175°
2026-05-05 03:06 31.35486 127.34794 38183 ft 492 kts 175°
2026-05-05 03:07 31.28878 127.36970 38178 ft 492 kts 175°
2026-05-05 03:07 31.22292 127.39144 38168 ft 494 kts 175°
2026-05-05 03:08 31.15700 127.41342 38164 ft 490 kts 175°
2026-05-05 03:08 31.09085 127.43542 38164 ft 490 kts 175°
2026-05-05 03:09 31.02550 127.45709 38163 ft 492 kts 175°
2026-05-05 03:09 30.95945 127.47900 38163 ft 489 kts 175°
2026-05-05 03:10 30.89260 127.50111 38163 ft 489 kts 175°
2026-05-05 03:10 30.82519 127.52339 38172 ft 488 kts 175°
2026-05-05 03:11 30.75948 127.54505 38172 ft 489 kts 175°
2026-05-05 03:11 30.69343 127.56683 38169 ft 489 kts 175°
2026-05-05 03:12 30.62712 127.58862 38169 ft 491 kts 175°
2026-05-05 03:12 30.56078 127.61041 38169 ft 493 kts 175°
2026-05-05 03:13 30.49509 127.63199 38165 ft 489 kts 175°
2026-05-05 03:13 30.42882 127.65367 38156 ft 493 kts 175°
2026-05-05 03:14 30.36250 127.67539 38141 ft 490 kts 175°
2026-05-05 03:14 30.29656 127.69693 38140 ft 489 kts 175°
2026-05-05 03:15 30.23021 127.71856 38139 ft 491 kts 175°
2026-05-05 03:15 30.16421 127.74005 38133 ft 491 kts 175°
2026-05-05 03:16 30.09843 127.76146 38134 ft 489 kts 175°
2026-05-05 03:16 30.03249 127.78288 38131 ft 489 kts 175°
2026-05-05 03:17 29.96622 127.80437 38132 ft 490 kts 175°
2026-05-05 03:17 29.89969 127.82574 38132 ft 487 kts 178°
2026-05-05 03:17 29.86588 127.83244 38136 ft 475 kts 185°
2026-05-05 03:18 29.83220 127.83368 38138 ft 464 kts 193°
2026-05-05 03:18 29.76662 127.82789 38137 ft 459 kts 195°
2026-05-05 03:19 29.66934 127.81851 38145 ft 460 kts 195°
2026-05-05 03:19 29.60469 127.81233 38133 ft 459 kts 195°
2026-05-05 03:20 29.54021 127.80618 38136 ft 459 kts 195°
2026-05-05 03:20 29.47538 127.80001 38135 ft 459 kts 195°
2026-05-05 03:21 29.41128 127.79393 38138 ft 460 kts 194°
2026-05-05 03:21 29.34650 127.78778 38126 ft 461 kts 195°
2026-05-05 03:22 29.28187 127.78166 38122 ft 462 kts 194°
2026-05-05 03:22 29.21651 127.77548 38134 ft 465 kts 194°
2026-05-05 03:23 29.15167 127.76937 38130 ft 463 kts 195°
2026-05-05 03:23 29.08637 127.76321 38128 ft 462 kts 195°
2026-05-05 03:24 29.02168 127.75713 38127 ft 461 kts 194°
2026-05-05 03:24 28.95601 127.75095 38119 ft 464 kts 195°
2026-05-05 03:25 28.89021 127.74477 38123 ft 464 kts 194°